Wind_Speed
24 25 25 26 26 25 25 25 25 24 25 24 24 23 22 21 20 19 18 18 18 19 18 18 17 17 16 16 16 15 15 14 14 13 12 12 11 11 10 11 12 15 19
23 24 25 26 27 28 28 28 28 28 28 28 28 27 26 25 24 23 22 22 21 22 22 22 22 21 21 20 19 19 18 17 17 16 16 15 14 14 13 12 13 14 16
22 22 23 25 27 28 30 31 31 32 32 32 31 31 30 29 28 27 26 25 25 25 25 25 26 26 25 24 23 22 21 21 20 20 19 18 17 16 15 15 15 15 16
19 20 22 24 26 28 29 30 32 33 34 34 34 33 33 32 31 31 30 28 28 27 28 28 29 29 29 28 27 26 25 24 24 23 22 21 20 20 19 18 17 17 17
17 19 21 23 24 26 28 29 31 32 34 35 35 35 35 34 34 33 32 31 30 30 30 31 32 32 32 32 31 30 29 28 27 26 25 24 24 23 22 21 20 19 19
18 20 22 24 25 27 28 30 31 32 34 35 36 36 36 36 36 35 34 34 33 33 33 33 34 34 35 35 34 33 32 31 30 29 29 27 26 26 25 24 23 22 21
22 23 25 27 28 30 31 32 33 34 35 36 37 38 38 38 37 37 37 37 36 36 35 35 36 36 36 37 37 37 36 34 33 33 32 30 29 28 28 27 26 24 23
25 27 29 31 33 34 36 37 38 39 40 40 40 41 41 41 41 40 40 40 40 39 39 39 39 38 38 38 39 39 38 37 36 35 34 33 32 31 30 30 28 27 26
25 27 29 30 32 34 36 37 39 40 42 43 43 44 45 45 45 45 44 44 43 43 42 42 42 42 41 41 41 41 40 39 39 38 37 36 34 33 33 31 30 29 28
27 29 30 32 34 36 38 39 40 41 42 42 43 44 45 46 47 48 48 48 47 47 46 46 45 45 44 43 43 43 42 42 41 41 39 38 36 35 35 33 31 30 30
29 31 33 34 36 38 40 41 43 44 45 46 46 46 46 46 46 47 48 49 50 50 49 49 48 48 47 46 46 45 45 44 43 43 42 40 39 38 37 35 33 32 32
34 36 38 40 42 43 45 46 47 47 48 49 50 50 50 50 49 48 48 49 49 50 51 51 51 50 50 49 49 49 48 47 46 46 45 42 41 40 39 38 35 35 34
39 41 44 46 47 49 50 51 52 53 53 54 54 53 53 53 53 52 52 51 50 50 51 52 52 52 52 52 52 51 50 49 49 49 48 46 44 43 42 41 38 37 36
44 47 49 52 53 55 56 56 57 57 58 58 59 59 58 58 57 56 55 55 54 53 52 52 53 53 54 54 53 53 52 52 52 51 50 49 47 46 45 44 42 39 38
51 55 58 60 62 63 64 65 66 65 65 64 64 64 63 62 61 61 60 59 58 57 56 56 55 55 55 55 55 54 53 54 54 53 53 52 50 49 48 46 45 42 40
59 62 65 67 69 70 72 73 74 74 74 73 72 71 70 69 67 65 64 64 63 62 61 60 60 59 58 57 56 55 55 55 55 55 55 54 53 52 51 49 48 45 43
66 69 71 74 76 78 80 81 82 83 82 82 80 79 77 76 74 71 69 67 67 66 66 65 64 64 62 61 59 58 57 57 57 57 57 57 56 55 53 52 50 48 46
73 76 79 80 82 84 86 87 88 87 87 86 84 83 82 81 80 79 76 73 71 70 69 69 68 68 67 66 64 62 60 58 58 59 58 58 58 57 56 54 53 51 50
77 79 81 82 83 85 86 87 87 86 84 83 81 80 80 82 82 82 81 78 76 74 73 72 71 71 70 69 68 66 64 61 59 60 60 59 60 59 58 57 56 54 53
79 80 81 82 83 82 81 78 75 73 70 69 68 67 69 73 78 83 84 83 81 78 76 75 74 73 72 72 71 70 68 66 64 62 62 61 61 60 60 59 58 57 55
79 80 80 80 77 73 68 63 59 55 51 49 49 50 53 57 64 75 84 86 85 83 81 79 78 77 75 74 73 72 71 70 68 66 64 64 63 62 61 61 60 59 58
80 79 77 73 67 62 58 54 50 45 43 43 44 45 45 47 50 57 69 82 89 88 86 84 82 80 78 77 76 75 74 73 71 70 68 66 65 65 64 63 62 62 61
78 74 69 63 58 55 52 49 46 45 45 45 44 44 45 45 45 46 53 64 80 90 91 89 87 85 83 80 79 78 76 75 75 73 71 70 68 67 67 66 65 64 63
74 67 61 56 54 52 51 49 47 46 45 45 44 44 44 44 44 44 44 49 60 77 90 93 92 90 87 84 82 81 79 78 77 76 75 73 72 71 70 69 68 67 66
68 61 56 54 53 52 52 51 50 50 49 48 47 46 44 43 43 42 41 41 45 56 72 87 93 93 92 89 86 84 83 82 80 79 78 76 75 73 72 71 70 69 68
62 57 54 54 54 55 54 54 54 54 54 52 51 49 46 44 42 41 39 38 37 41 51 65 80 89 93 92 90 88 86 85 83 82 81 79 78 76 74 74 73 72 71
Wind_Direction
247 247 249 249 249 250 251 252 254 255 256 258 261 264 265 265 263 260 259 255 249 244 240 238 237 236 236 237 236 237 238 239 241 245 250 254 257 256 250 241 231 225 224
257 257 258 259 258 257 256 256 257 258 259 260 261 263 264 264 262 261 259 257 253 248 243 240 239 239 239 240 239 238 239 241 243 246 249 251 253 254 253 249 242 234 227
264 263 264 263 263 262 262 262 262 262 262 262 262 262 263 262 262 261 259 257 254 251 247 244 241 240 240 241 242 242 242 242 244 246 247 249 251 251 250 250 247 242 235
269 268 266 264 262 262 263 263 264 264 264 263 262 261 261 261 260 260 259 257 254 252 249 246 243 242 241 241 243 244 245 245 245 246 246 247 248 248 247 247 246 245 241
275 271 270 268 267 265 264 264 264 264 264 264 264 262 261 260 259 258 257 255 254 252 249 247 244 242 241 241 242 243 245 247 247 248 247 246 246 246 246 245 244 244 243
282 280 278 276 274 272 270 269 268 267 267 266 266 265 264 262 261 259 257 256 254 252 250 248 246 244 242 240 240 242 244 247 248 249 248 247 245 244 245 244 244 244 244
287 285 283 282 280 278 276 273 271 269 268 267 266 265 265 263 262 261 259 258 256 253 251 249 247 245 243 241 240 241 243 245 247 248 248 247 245 243 243 244 244 244 244
292 290 288 286 284 282 279 277 275 272 270 268 266 265 264 262 261 259 258 257 256 255 253 251 248 246 243 242 241 242 242 244 246 246 247 246 245 242 242 242 243 243 243
302 299 297 294 291 288 285 282 279 276 273 270 268 265 264 262 261 259 257 256 254 253 252 251 249 247 245 243 242 241 241 242 244 244 245 244 243 241 240 240 241 242 242
306 302 299 296 293 290 287 285 282 280 277 274 271 268 265 263 261 259 258 256 253 252 251 250 249 248 246 245 243 241 240 241 242 243 243 242 240 239 238 238 237 240 241
306 303 300 297 294 291 288 286 283 281 278 276 274 271 268 265 262 260 258 256 254 252 250 249 248 248 247 246 244 242 240 239 240 241 241 240 238 237 237 236 235 237 240
305 303 300 298 295 293 290 288 285 282 280 277 275 273 270 267 264 261 258 256 254 252 250 249 248 247 247 246 245 243 241 239 238 239 239 238 236 235 235 235 234 234 238
306 304 301 299 296 293 290 287 285 282 280 278 276 273 272 269 267 263 259 256 254 252 250 248 247 246 245 244 244 243 241 239 238 238 237 235 235 234 234 234 234 233 234
305 302 300 297 295 293 290 288 285 282 280 277 275 273 270 269 267 265 262 258 254 252 249 248 247 246 245 244 244 243 242 240 238 237 236 234 234 234 234 235 235 233 232
303 301 299 298 296 294 292 290 287 284 281 278 275 273 270 267 265 263 261 259 256 253 250 248 247 246 246 245 244 242 241 239 238 236 235 234 233 233 234 235 235 234 232
304 302 301 299 297 296 294 292 289 287 284 281 277 273 270 267 264 261 259 257 255 253 251 248 246 245 245 245 245 244 241 238 236 235 234 233 233 233 233 234 235 235 233
303 302 301 300 298 296 294 292 290 287 284 281 278 274 270 267 264 261 258 256 254 252 250 248 246 245 244 243 244 245 244 240 236 234 233 232 232 232 233 234 235 235 234
304 302 301 299 297 295 293 291 289 287 284 281 278 274 270 266 263 260 258 255 252 251 249 247 246 245 244 243 242 242 243 242 239 235 233 232 231 231 232 233 234 235 235
304 303 302 300 298 295 293 291 291 290 289 286 282 278 272 267 262 259 256 254 252 249 248 247 245 244 243 243 242 241 240 240 239 237 235 233 232 231 231 232 233 234 235
308 307 305 302 299 297 297 297 297 297 296 293 290 285 277 269 262 257 255 253 251 248 247 246 245 243 242 242 241 241 240 239 238 237 236 234 232 232 232 232 232 233 234
312 309 306 303 302 302 303 303 302 301 300 298 296 292 286 278 268 259 252 250 248 247 245 244 243 242 241 240 240 240 239 239 238 237 236 235 233 232 232 232 233 233 234
313 309 306 305 306 307 307 306 305 303 301 299 299 298 295 289 280 269 259 250 246 245 243 242 241 241 240 239 238 238 238 238 238 237 236 235 234 233 232 231 232 233 234
312 309 307 308 309 309 308 306 305 304 302 300 300 299 299 298 295 287 272 258 248 243 241 241 240 239 238 238 238 237 236 236 237 236 236 235 235 234 233 232 232 233 234
313 310 310 310 310 310 308 305 303 302 300 299 298 298 298 298 297 295 289 274 258 246 240 238 238 238 238 237 237 237 236 235 235 235 235 235 235 235 235 233 233 233 234
314 313 312 311 311 310 308 305 302 301 300 299 298 298 298 297 296 296 293 288 273 256 245 239 237 237 237 236 236 236 236 236 235 235 234 234 235 235 235 235 235 235 235
317 315 314 313 312 310 308 305 302 300 298 297 296 295 295 295 293 292 292 290 283 270 255 244 239 236 236 236 236 236 236 236 236 235 235 233 233 234 234 235 235 236 236
Height
5869 5868 5868 5868 5867 5867 5867 5867 5866 5866 5866 5865 5865 5864 5863 5863 5862 5861 5861 5860 5860 5859 5859 5859 5859 5860 5860 5861 5862 5862 5863 5864 5864 5864 5864 5864 5864 5864 5864 5865 5865 5866 5867
5866 5865 5864 5864 5863 5862 5862 5862 5861 5861 5861 5861 5860 5859 5858 5858 5857 5857 5856 5856 5855 5855 5855 5855 5855 5856 5856 5857 5858 5859 5860 5860 5861 5861 5862 5862 5863 5863 5863 5863 5863 5864 5865
5861 5860 5859 5859 5858 5857 5857 5857 5856 5856 5856 5855 5855 5854 5853 5852 5852 5851 5851 5850 5850 5850 5850 5850 5850 5851 5852 5853 5853 5854 5855 5856 5857 5858 5859 5859 5860 5860 5860 5861 5861 5862 5862
5856 5855 5854 5853 5852 5852 5851 5851 5850 5850 5849 5849 5848 5847 5847 5846 5845 5845 5844 5844 5844 5844 5844 5844 5845 5845 5846 5848 5848 5849 5850 5851 5853 5854 5855 5856 5856 5857 5857 5858 5858 5859 5860
5852 5851 5850 5849 5848 5847 5846 5845 5844 5844 5843 5842 5841 5841 5840 5839 5838 5838 5837 5837 5837 5837 5837 5838 5838 5839 5840 5842 5843 5844 5845 5846 5848 5849 5850 5851 5852 5853 5853 5854 5855 5856 5857
5850 5849 5847 5845 5844 5843 5842 5841 5840 5838 5837 5836 5835 5834 5833 5833 5832 5831 5831 5830 5830 5830 5831 5831 5832 5833 5834 5835 5837 5838 5839 5840 5842 5843 5845 5846 5847 5848 5849 5850 5851 5852 5853
5847 5845 5843 5842 5840 5839 5837 5835 5834 5832 5831 5829 5828 5827 5826 5825 5825 5824 5824 5823 5823 5823 5824 5824 5825 5826 5827 5828 5830 5831 5832 5834 5836 5837 5839 5840 5841 5842 5843 5844 5846 5847 5848
5843 5841 5839 5837 5835 5833 5831 5829 5827 5825 5823 5822 5820 5819 5817 5816 5816 5815 5815 5815 5815 5815 5816 5816 5817 5818 5819 5821 5822 5824 5825 5827 5829 5830 5832 5833 5835 5836 5837 5839 5840 5842 5843
5839 5836 5834 5831 5828 5826 5823 5820 5818 5816 5814 5812 5811 5809 5808 5807 5806 5806 5805 5805 5805 5806 5806 5807 5808 5809 5811 5812 5814 5816 5818 5820 5821 5823 5824 5826 5828 5830 5831 5832 5835 5836 5838
5834 5831 5828 5825 5822 5819 5816 5813 5810 5807 5804 5802 5800 5799 5797 5796 5796 5795 5795 5795 5795 5796 5796 5797 5798 5800 5801 5803 5805 5807 5810 5812 5813 5814 5816 5819 5821 5823 5824 5826 5828 5830 5832
5829 5826 5822 5819 5815 5811 5808 5804 5801 5798 5795 5792 5790 5788 5786 5785 5784 5783 5783 5783 5784 5785 5786 5787 5788 5789 5791 5793 5796 5798 5800 5803 5805 5806 5808 5811 5813 5815 5817 5819 5822 5824 5825
5824 5820 5815 5811 5807 5803 5799 5795 5791 5787 5784 5781 5778 5776 5775 5773 5772 5772 5771 5771 5772 5773 5774 5775 5776 5778 5780 5782 5784 5787 5790 5793 5795 5797 5799 5802 5805 5807 5809 5812 5815 5817 5819
5818 5813 5807 5802 5797 5792 5787 5783 5779 5775 5772 5769 5766 5763 5761 5760 5759 5759 5759 5759 5760 5760 5761 5762 5764 5765 5767 5769 5771 5774 5778 5781 5785 5787 5790 5793 5796 5798 5801 5804 5806 5809 5812
5809 5804 5798 5791 5786 5780 5774 5769 5765 5761 5757 5754 5751 5749 5747 5745 5744 5744 5744 5745 5746 5747 5748 5749 5750 5752 5753 5755 5757 5761 5764 5768 5772 5776 5780 5783 5786 5789 5792 5795 5798 5801 5805
5800 5793 5786 5779 5772 5766 5759 5754 5749 5744 5740 5737 5734 5731 5730 5729 5728 5727 5728 5729 5730 5732 5733 5735 5737 5738 5740 5742 5744 5747 5750 5754 5759 5764 5769 5773 5776 5780 5783 5786 5789 5792 5796
5788 5780 5772 5764 5757 5749 5742 5735 5729 5724 5720 5716 5714 5711 5710 5709 5709 5709 5709 5710 5712 5715 5717 5720 5722 5724 5726 5729 5731 5734 5737 5741 5745 5750 5755 5760 5765 5769 5773 5776 5780 5783 5787
5775 5766 5757 5748 5739 5730 5722 5714 5707 5701 5696 5691 5689 5687 5686 5686 5687 5688 5689 5691 5693 5696 5699 5702 5705 5708 5711 5714 5718 5721 5724 5728 5731 5736 5741 5747 5752 5758 5762 5766 5770 5774 5777
5759 5749 5739 5730 5720 5709 5699 5690 5682 5675 5669 5664 5661 5660 5660 5660 5661 5664 5666 5669 5672 5675 5678 5682 5687 5691 5695 5698 5702 5706 5710 5714 5719 5723 5728 5733 5739 5745 5750 5755 5759 5763 5768
5743 5732 5721 5710 5699 5687 5675 5664 5655 5647 5640 5636 5632 5631 5631 5632 5634 5637 5640 5644 5649 5653 5657 5661 5666 5671 5676 5681 5685 5690 5695 5700 5705 5710 5715 5720 5726 5732 5738 5743 5748 5752 5757
5724 5712 5699 5687 5675 5663 5653 5643 5633 5625 5617 5611 5606 5603 5602 5603 5605 5608 5612 5617 5623 5628 5634 5639 5645 5650 5657 5662 5667 5673 5679 5684 5690 5695 5701 5706 5712 5718 5725 5731 5736 5741 5746
5706 5692 5678 5665 5652 5642 5633 5625 5618 5610 5602 5595 5589 5583 5579 5577 5577 5579 5583 5589 5595 5602 5609 5615 5622 5628 5635 5641 5648 5655 5662 5668 5674 5680 5686 5692 5698 5705 5711 5717 5723 5729 5735
5688 5673 5658 5645 5635 5626 5617 5610 5603 5597 5590 5584 5577 5571 5564 5560 5555 5553 5553 5559 5565 5573 5582 5590 5597 5605 5613 5620 5627 5635 5643 5651 5658 5664 5670 5677 5684 5690 5696 5703 5710 5716 5723
5669 5654 5641 5631 5622 5613 5605 5598 5591 5584 5578 5571 5565 5558 5551 5544 5539 5534 5531 5530 5534 5543 5553 5562 5571 5580 5590 5598 5605 5614 5623 5632 5639 5646 5654 5661 5668 5674 5681 5688 5695 5702 5709
5651 5637 5627 5618 5609 5601 5593 5586 5579 5572 5566 5559 5552 5546 5539 5531 5525 5519 5513 5509 5508 5513 5522 5533 5543 5554 5565 5576 5584 5592 5601 5610 5618 5628 5636 5644 5651 5658 5666 5673 5680 5688 5695
5635 5624 5615 5606 5598 5589 5581 5573 5566 5559 5552 5545 5538 5532 5526 5519 5512 5505 5500 5494 5491 5490 5495 5504 5515 5527 5539 5551 5562 5571 5580 5589 5599 5608 5617 5626 5634 5642 5649 5657 5665 5672 5680
5623 5613 5604 5595 5586 5577 5568 5559 5551 5544 5536 5529 5523 5517 5511 5506 5500 5493 5488 5482 5478 5476 5476 5481 5490 5501 5513 5525 5538 5548 5558 5568 5578 5587 5597 5607 5615 5624 5632 5640 5648 5657 5665